Weather History for Cape Cod CGAS, MA

Change the Weather History Date:

Wednesday, January 22, 2014

  Actual Average Record
Temperature  
Mean Temperature 20 °F -  
Max Temperature 29 °F 32 °F 51 °F (1997)
Min Temperature 12 °F 16 °F -7 °F (2005)
Degree Days  
Heating Degree Days 44    
Moisture  
Dew Point 13 °F    
Average Humidity 76    
Maximum Humidity 93    
Minimum Humidity 37    
Precipitation  
Precipitation 0.00 in - - ()
Sea Level Pressure  
Sea Level Pressure 29.64 in    
Wind  
Wind Speed 18 mph (North)    
Max Wind Speed 34 mph    
Max Gust Speed 40 mph    
Visibility 3 miles    
Events Fog , Rain , Snow    
Averages and records for this station are not official NWS values.
T = Trace of Precipitation, MM = Missing Value Source: NWS Daily Summary

Daily Weather History Graph

Daily Weather History Graph

Search for Another Location

Airport:

Trip Planner

Search our weather history database for the weather conditions in past years. The results will help you decide how hot, cold, wet, or windy it might be!

Date:

Astronomy

Jan. 22, 2014 Rise Set
Actual Time 7:02 AM EST 4:45 PM EST
Civil Twilight 6:32 AM EST 5:15 PM EST
Nautical Twilight 5:58 AM EST 5:49 PM EST
Astronomical Twilight 5:25 AM EST 6:22 PM EST
Moon 11:20 PM EST (1/22) 9:56 AM EST (1/22)
Length of Visible Light 10h 42m
Length of Day
9h 42m
Waning Gibbous, 65% of the Moon is Illuminated
Jan 22
Waning Gibbous
Jan 24
Last Quarter
Jan 30
New
Feb 6
First Quarter
Feb 14
Full

Hourly Weather History & Observations

Time (EST) Temp. Windchill Dew Point Humidity Pressure Visibility Wind Dir Wind Speed Gust Speed Precip Events Conditions
12:15 AM 23.0 °F 9.2 °F 19.4 °F 86% 29.73 in 3.0 mi NNE 17.3 mph 31.1 mph 0.06 in Rain Light Freezing Rain
12:35 AM 23.0 °F 9.6 °F 19.4 °F 86% 29.72 in 3.0 mi NNE 16.1 mph 27.6 mph 0.12 in Snow Light Snow
12:55 AM 23.0 °F 9.2 °F 19.4 °F 86% 29.71 in 2.5 mi NE 17.3 mph 29.9 mph 0.30 in Snow Light Snow
1:15 AM 23.0 °F 7.2 °F 19.4 °F 86% 29.70 in 2.0 mi NE 23.0 mph 32.2 mph 0.11 in Snow Light Snow
1:35 AM 23.0 °F 7.2 °F 19.4 °F 86% 29.70 in 2.5 mi NE 23.0 mph 35.7 mph 0.21 in   Mostly Cloudy
1:55 AM 23.0 °F 8.3 °F 19.4 °F 86% 29.69 in 2.0 mi NE 19.6 mph 27.6 mph 0.29 in Snow Light Snow
2:15 AM 23.0 °F 8.3 °F 19.4 °F 86% 29.68 in 2.0 mi NNE 19.6 mph 34.5 mph 0.09 in   Overcast
2:35 AM 23.0 °F 7.6 °F 19.4 °F 86% 29.67 in 2.0 mi NNE 21.9 mph 39.1 mph 0.20 in   Overcast
2:55 AM 23.0 °F 6.9 °F 17.6 °F 80% 29.66 in 2.0 mi NNE 24.2 mph 36.8 mph 0.30 in   Overcast
3:15 AM 23.0 °F 8.3 °F 17.6 °F 80% 29.66 in 3.0 mi NNE 19.6 mph 29.9 mph 0.04 in   Overcast
3:35 AM 23.0 °F 8.7 °F 17.6 °F 80% 29.64 in 2.0 mi NNE 18.4 mph 34.5 mph 0.12 in   Overcast
3:55 AM 23.0 °F 10.1 °F 19.4 °F 86% 29.63 in 1.0 mi NNE 15.0 mph 34.5 mph 0.28 in Snow Light Snow
4:15 AM 23.0 °F 9.2 °F 19.4 °F 86% 29.63 in 0.5 mi NNE 17.3 mph 31.1 mph 0.31 in Snow Snow
4:55 AM 21.2 °F 4.9 °F 17.6 °F 86% 29.62 in 1.0 mi NNE 23.0 mph 38.0 mph 1.09 in Snow Light Snow
5:15 AM 21.2 °F 6.0 °F 17.6 °F 86% 29.63 in 0.8 mi NNE 19.6 mph 31.1 mph 0.21 in Snow Light Snow
5:35 AM 21.2 °F 4.5 °F 17.6 °F 86% 29.61 in 0.5 mi NNE 24.2 mph 33.4 mph 0.69 in Snow Snow
5:55 AM 21.2 °F 7.3 °F 17.6 °F 86% 29.60 in 0.5 mi NNE 16.1 mph 34.5 mph 1.17 in Snow Snow
6:15 AM 21.2 °F 6.4 °F 17.6 °F 86% 29.61 in 0.8 mi North 18.4 mph 33.4 mph 0.25 in Snow Light Snow
6:35 AM 21.2 °F 7.3 °F 17.6 °F 86% 29.62 in 0.8 mi NNE 16.1 mph 34.5 mph 0.70 in Snow Light Snow
6:55 AM 21.2 °F 5.6 °F 17.6 °F 86% 29.62 in 0.8 mi North 20.7 mph 34.5 mph 1.09 in Snow Light Snow
7:15 AM 19.4 °F 4.5 °F 17.6 °F 93% 29.61 in 0.2 mi NNE 17.3 mph 31.1 mph 0.26 in Snow Heavy Snow
7:35 AM 19.4 °F 2.1 °F 17.6 °F 93% 29.59 in 0.2 mi NNE 24.2 mph 40.3 mph 0.65 in Snow Heavy Snow
7:55 AM 19.4 °F 3.6 °F 15.8 °F 86% 29.58 in 0.2 mi North 19.6 mph 35.7 mph 0.92 in Snow Heavy Snow
8:15 AM 19.4 °F 4.5 °F 15.8 °F 86% 29.58 in 0.2 mi NNE 17.3 mph 33.4 mph 0.14 in Snow Heavy Snow
8:35 AM 19.4 °F 5.0 °F 15.8 °F 86% 29.57 in 0.2 mi North 16.1 mph 34.5 mph 0.34 in Snow Heavy Snow
8:55 AM 19.4 °F 3.6 °F 15.8 °F 86% 29.57 in 0.5 mi North 19.6 mph 40.3 mph 0.48 in Snow Snow
9:15 AM 19.4 °F 2.8 °F 15.8 °F 86% 29.57 in 0.5 mi North 21.9 mph 29.9 mph 0.10 in Snow Snow
9:35 AM 19.4 °F 4.5 °F 15.8 °F 86% 29.57 in 0.5 mi North 17.3 mph 38.0 mph 0.32 in Snow Snow
9:55 AM 19.4 °F 2.5 °F 14.0 °F 80% 29.55 in 0.5 mi North 23.0 mph 33.4 mph 0.51 in Snow Snow
10:15 AM 19.4 °F 2.8 °F 15.8 °F 86% 29.55 in 0.2 mi North 21.9 mph 32.2 mph 0.25 in Snow Heavy Snow
10:35 AM 19.4 °F 5.0 °F 15.8 °F 86% 29.54 in 0.5 mi North 16.1 mph 35.7 mph 0.55 in Snow Snow
10:55 AM 17.6 °F 1.7 °F 14.0 °F 86% 29.54 in 0.2 mi North 18.4 mph 31.1 mph 1.24 in Snow Heavy Snow
11:50 AM 19.4 °F 3.2 °F 14.0 °F 80% 29.56 in 0.5 mi North 20.7 mph 34.5 mph N/A Snow Snow
12:50 PM 21.2 °F 6.4 °F 14.0 °F 74% 29.51 in 0.5 mi North 18.4 mph 28.8 mph N/A Snow Snow
1:50 PM 19.4 °F 4.1 °F 14.0 °F 80% 29.53 in 0.8 mi NNW 18.4 mph 28.8 mph N/A Snow Snow
2:50 PM 15.8 °F 1.4 °F 8.6 °F 73% 29.63 in 2.0 mi NNW 13.8 mph 23.0 mph N/A Snow Light Snow
3:30 PM 15.8 °F 0.9 °F 8.6 °F 73% 29.63 in 10.0 mi NNW 15.0 mph 23.0 mph N/A   Mostly Cloudy
3:55 PM 15.8 °F 0.9 °F 8.6 °F 73% 29.69 in 10.0 mi NNW 15.0 mph 23.0 mph N/A   Mostly Cloudy
4:55 PM 14.0 °F 2.0 °F -0.4 °F 53% 29.69 in 10.0 mi NW 9.2 mph 16.1 mph N/A   Light Freezing Rain
5:15 PM 14.0 °F 0.5 °F -0.4 °F 53% 29.70 in 10.0 mi WNW 11.5 mph - N/A   Light Freezing Rain
5:35 PM 12.2 °F -1.0 °F -0.4 °F 57% 29.72 in 10.0 mi WNW 10.4 mph 16.1 mph N/A   Partly Cloudy
5:55 PM 12.2 °F -1.0 °F -0.4 °F 57% 29.72 in 10.0 mi WNW 10.4 mph - N/A   Overcast
6:15 PM 12.2 °F -0.2 °F -2.2 °F 53% 29.73 in 10.0 mi WNW 9.2 mph - N/A   Clear
6:35 PM 12.2 °F -0.2 °F -2.2 °F 53% 29.74 in 10.0 mi WNW 9.2 mph - N/A   Clear
6:55 PM 12.2 °F -0.2 °F -2.2 °F 53% 29.74 in 10.0 mi NW 9.2 mph - N/A   Clear
7:15 PM 12.2 °F -1.8 °F -2.2 °F 53% 29.76 in 10.0 mi WNW 11.5 mph 19.6 mph N/A   Mostly Cloudy
7:35 PM 12.2 °F -1.8 °F -2.2 °F 53% 29.77 in 10.0 mi WNW 11.5 mph - N/A   Clear
7:55 PM 12.2 °F -1.0 °F -4.0 °F 48% 29.78 in 10.0 mi WNW 10.4 mph 17.3 mph N/A   Clear
8:15 PM 12.2 °F -2.5 °F -4.0 °F 48% 29.79 in 10.0 mi WNW 12.7 mph - N/A   Partly Cloudy